Current weather by "City, St" or "zip code"  
 
Advertise Here

Current Conditions: Youngstown, Youngstown-Warren Regional Airport, OH

Overcast


40.0 F

Last Updated on Feb 28 2021, 5:51 am EST
Humidity: 77%
Wind Speed: E 13.8 mph
Barometer 30.04 in
Dewpoint: 33.1 F
Visibility: 10.00 mi
Precip: --
Heat Index: NA
Wind Chill: 32 F
Current conditions at:

Youngstown, Youngstown-Warren Regional Airport, OH (KYNG)

Lat: 41.25444 Lon: 80.67389

Local Radar Image active severe weather and emergency alerts image image weather storm and storm spotter reports image weather observation monitoring service image
Local
Radar
Active
Alerts
Storm Reports Obs
Monitoring

Sign-up For Email & Text Message Weather Alert Notification Services


Advertise Here

Observation History for Youngstown, Youngstown-Warren Regional Airport, OH


Time Wind
(mph)
Vis
(mi)
Weather Precip (in) Temperature (F) Relative
Humidity
Wind
Chill
(F)
Heat
Index
(F)
Pressure
Air Dwpt altimeter
(in)
sea level
(mb)
Rmks
5:51 am EST E 13.8 10.00 Overcast -- 40.0 33.1 77% 32 NA 30.04 1017.8
4:51 am EST E 12.7 10.00 Overcast -- 38.0 33.1 83% 30 NA 30.07 1018.9
3:51 am EST E 9.2 10.00 Overcast -- 37.0 33.1 86% 30 NA 30.09 1019.5
2:51 am EST E 9.2 9.00 Overcast -- 38.0 33.1 83% 32 NA 30.11 1020.4
1:51 am EST E 6.9 9.00 Overcast -- 36.0 33.1 89% 30 NA 30.15 1021.8
12:51 am EST SE 6.9 9.00 Overcast -- 35.0 32.0 89% 29 NA 30.17 1022.5
11:51 pm EST E 6.9 9.00 Mostly Cloudy -- 30.0 28.0 92% 23 NA 30.18 1023.0
10:51 pm EST E 4.6 9.00 Mostly Cloudy -- 31.0 28.0 89% 26 NA 30.21 1024.1
9:51 pm EST N 0.0 10.00 Mostly Cloudy -- 35.0 30.9 85% NA NA 30.22 1024.1
8:51 pm EST SW 3.5 10.00 Mostly Cloudy -- 39.0 33.1 79% NA NA 30.21 1023.9
7:51 pm EST N 0.0 10.00 Mostly Cloudy -- 41.0 33.1 73% NA NA 30.20 1023.6
6:51 pm EST SW 4.6 10.00 Mostly Cloudy -- 43.0 33.1 68% 40 NA 30.19 1023.2
5:51 pm EST SW 5.8 10.00 Mostly Cloudy -- 44.0 33.1 65% 41 NA 30.17 1022.4
4:51 pm EST W 8.1 10.00 Partly Cloudy -- 49.0 35.1 59% 46 NA 30.15 1021.3
3:51 pm EST NW 5.8 10.00 Partly Cloudy -- 51.0 37.9 61% 49 NA 30.12 1020.4
2:51 pm EST W 8.1 10.00 Mostly Cloudy -- 49.0 37.0 64% 46 NA 30.09 1019.5
1:51 pm EST W 6.9 10.00 Mostly Cloudy -- 46.0 37.9 73% 42 NA 30.06 1018.5
12:51 pm EST W 8.1 10.00 Overcast -- 46.0 39.9 79% 42 NA 30.05 1018.3
11:51 am EST W 9.2 10.00 Overcast -- 44.0 39.0 83% 39 NA 30.03 1017.6
10:51 am EST W 12.7 G 17.3 10.00 Overcast Trace 43.0 39.0 86% 36 NA 30.00 1016.4
9:51 am EST S 8.1 9.00 Light Rain 00.03 42.0 39.0 89% 37 NA 29.96 1015.2
8:51 am EST SW 4.6 5.00 Light Rain Fog/Mist 00.06 41.0 37.9 89% 38 NA 29.97 1015.5
7:51 am EST S 8.1 7.00 Light Rain 00.04 41.0 35.1 79% 36 NA 29.92 1013.9
6:51 am EST S 10.4 G 19.6 10.00 Light Rain 00.01 41.0 34.0 76% 35 NA 29.90 1013.3

Regional Weather Observation


Ashtabula - Northeast Ohio Regional Airport, OH (KHZY)

Fair
41.0 F

Portage County Airport, OH (KPOV)

Overcast
37.0 F

New Castle, New Castle Municipal Airport, PA (KUCP)

Overcast
41.0 F

Port Meadville Airport, PA (KGKJ)

Fair
37.0 F

Willoughby, OH (KLNN)

Mostly Cloudy
41.0 F

Cleveland / Cuyahoga, OH (KCGF)

Overcast
42.0 F
Advertise Here

Advertise Here